DW8454 Weather Reports


Display with metric or nautical units.
time (UTC)temp
F
wind
direction
speed
MPH
gust
MPH
rain 1hr
in
rain 24hr
in
rain mn
in
humidity
%
barometer
mb
20260905031722 70 116 0.0 0.0 0.00 0.23 0.23 99 1012.8
20260905030726 70 116 0.0 0.0 0.00 0.23 0.23 99 1012.8
20260905025711 70 116 0.0 0.0 0.00 0.23 0.23 99 1012.8
20260905024708 70 116 0.0 0.0 0.00 0.23 0.23 99 1012.8
20260905023648 70 116 0.0 0.0 0.00 0.23 0.23 99 1012.8
20260905022659 70 116 0.0 0.0 0.00 0.23 0.23 98 1012.8
20260905021634 70 116 0.0 0.0 0.00 0.23 0.23 98 1012.8
20260905020649 70 116 0.0 0.0 0.00 0.23 0.23 98 1012.8
20260905015627 71 116 0.0 0.0 0.00 0.23 0.23 98 1012.7
20260905014637 71 116 0.0 0.0 0.00 0.23 0.23 98 1012.7
20260905013644 71 116 0.0 0.0 0.00 0.23 0.23 98 1012.8
20260905012700 71 116 0.0 0.0 0.00 0.23 0.23 98 1012.9
20260905011651 71 116 0.0 0.0 0.00 0.23 0.23 98 1012.9
20260905010635 71 116 0.0 0.0 0.00 0.23 0.23 98 1012.9
20260905005659 71 116 0.0 0.0 0.00 0.23 0.23 98 1012.8
20260905003516 71 116 0.0 0.0 0.00 0.23 0.23 98 1012.7
20260905002454 71 116 0.0 0.0 0.00 0.23 0.23 97 1012.8
20260905000250 72 116 0.0 0.0 0.00 0.23 0.23 96 1012.8
20260904235310 73 116 0.0 0.0 0.00 0.23 0.23 96 1012.7
20260904234302 73 101 0.0 0.0 0.00 0.23 0.23 95 1012.6
20260904233302 74 116 0.0 0.0 0.00 0.24 0.23 95 1012.7
20260904232239 74 116 0.0 0.0 0.00 0.24 0.23 94 1012.8
20260904231250 75 116 0.0 0.0 0.00 0.24 0.23 92 1012.7
20260904230249 75 116 0.0 0.0 0.00 0.27 0.23 94 1012.8
20260904225237 75 116 0.0 0.0 0.00 0.29 0.23 92 1012.5
20260904224219 76 116 0.0 0.0 0.00 0.30 0.23 89 1012.1
20260904223235 76 275 0.0 0.0 0.00 0.32 0.23 89 1012.6
20260904222207 76 275 0.0 0.0 0.00 0.41 0.23 89 1012.6
20260904221205 76 275 0.0 1.0 0.00 0.84 0.23 89 1012.5
20260904220148 76 275 0.0 0.0 0.00 0.87 0.23 87 1012.2
20260904215205 76 275 0.0 0.0 0.00 0.95 0.23 89 1012.3
20260904214209 76 292 0.0 2.0 0.00 0.95 0.23 88 1012.2
20260904213147 76 223 0.0 0.0 0.00 0.95 0.23 88 1011.9
20260904212152 76 223 0.0 0.0 0.00 0.95 0.23 89 1011.7
20260904211142 76 243 0.0 3.0 0.00 0.95 0.23 89 1011.7
20260904210109 76 221 0.0 0.0 0.00 0.95 0.23 88 1011.4
20260904205128 76 221 0.0 0.0 0.00 0.95 0.23 88 1011.4
20260904204134 76 221 0.0 0.0 0.00 0.95 0.23 86 1011.2
20260904202029 76 209 0.0 0.0 0.00 0.95 0.23 89 1010.9
20260904201004 76 245 0.0 4.0 0.00 0.95 0.23 90 1011.3
20260904194840 76 188 1.0 4.0 0.00 0.95 0.23 88 1012.0
20260904193839 76 268 1.0 4.0 0.00 0.95 0.23 88 1012.2
20260904192829 76 223 1.0 3.0 0.00 0.95 0.23 90 1012.6
20260904191802 75 258 1.0 4.0 0.00 0.95 0.23 91 1012.8
20260904190801 75 277 1.0 5.0 0.00 0.95 0.23 91 1012.9
20260904185756 75 263 2.0 5.0 0.00 0.95 0.23 91 1013.0
20260904184759 74 236 0.0 4.0 0.00 0.95 0.23 93 1013.1
20260904183749 73 202 0.0 0.0 0.00 0.95 0.23 94 1012.8
20260904181544 72 213 0.0 4.0 0.00 0.95 0.23 95 1012.4
20260904180515 72 219 1.0 4.0 0.00 0.95 0.23 95 1013.1
20260904175456 72 217 1.0 5.0 0.00 0.95 0.23 96 1013.4
20260904173354 72 283 3.0 7.0 0.00 0.93 0.21 95 1015.2
20260904172356 73 323 3.0 7.0 0.00 0.93 0.21 96 1015.4
20260904171419 73 299 1.0 3.0 0.00 0.93 0.21 96 1015.3
20260904170430 74 313 0.0 2.0 0.00 0.93 0.21 96 1014.9
20260904165409 73 325 0.0 1.0 0.00 0.93 0.21 98 1014.9
20260904164409 73 315 0.0 2.0 0.00 0.93 0.21 98 1015.2
20260904163357 72 322 0.0 2.0 0.04 0.93 0.21 98 1015.1
20260904162341 72 15 0.0 1.0 0.05 0.93 0.21 98 1015.2
20260904161337 71 306 0.0 0.0 0.09 0.93 0.21 98 1015.3
20260904155246 71 306 1.0 4.0 0.00 0.85 0.13 98 1015.8
20260904154300 71 311 1.0 4.0 0.00 0.84 0.12 98 1015.9
20260904153244 71 312 0.0 2.0 0.00 0.84 0.12 98 1015.7
20260904152254 71 315 0.0 1.0 0.00 0.84 0.12 98 1015.4
20260904151250 71 329 0.0 0.0 0.00 0.84 0.12 98 1015.1
20260904150229 70 134 0.0 0.0 0.00 0.84 0.12 98 1014.5
20260904145154 70 134 0.0 0.0 0.00 0.84 0.12 98 1014.3
20260904144152 70 134 0.0 0.0 0.00 0.84 0.12 99 1014.0
20260904143123 70 126 0.0 1.0 0.04 0.84 0.12 98 1014.0
20260904142141 69 106 0.0 1.0 0.09 0.84 0.12 98 1014.2
20260904141137 69 202 0.0 0.0 0.17 0.83 0.10 98 1014.5
20260904140136 69 221 0.0 0.0 0.05 0.80 0.08 98 1014.3
20260904135111 69 221 0.0 0.0 0.05 0.80 0.08 98 1014.2
20260904134104 69 221 0.0 1.0 0.06 0.79 0.06 98 1014.4
20260904133118 69 221 0.0 0.0 0.12 0.78 0.06 97 1014.6
20260904132112 69 243 0.0 2.0 0.05 0.76 0.04 97 1014.9
20260904131117 69 200 0.0 2.0 0.05 0.75 0.04 97 1014.4
20260904130112 69 230 0.0 1.0 0.12 0.75 0.03 97 1014.1
20260904125138 69 270 1.0 3.0 0.00 0.73 0.01 97 1014.9
20260904124128 69 258 0.0 3.0 0.00 0.73 0.01 98 1014.5
20260904123127 69 236 0.0 2.0 0.00 0.73 0.01 98 1014.3
20260904122057 68 215 0.0 1.0 0.00 0.73 0.01 98 1014.1
20260904121032 68 233 0.0 0.0 0.00 0.73 0.01 98 1014.1
20260904114908 68 233 0.0 1.0 0.00 0.73 0.01 98 1014.0
20260904112713 67 127 0.0 0.0 0.00 0.73 0.01 98 1013.8
20260904111709 67 127 0.0 0.0 0.00 0.73 0.01 98 1013.9
20260904105530 67 127 0.0 0.0 0.00 0.73 0.01 98 1013.6
20260904104511 67 127 0.0 0.0 0.00 0.73 0.01 98 1013.4
20260904103536 67 127 0.0 0.0 0.00 0.73 0.01 98 1013.2
20260904102544 67 127 0.0 0.0 0.00 0.73 0.01 98 1013.3
20260904101530 67 127 0.0 0.0 0.00 0.73 0.01 98 1013.5
20260904100531 67 127 0.0 0.0 0.00 0.73 0.01 98 1013.2
20260904095545 67 127 0.0 1.0 0.00 0.73 0.01 98 1013.0
20260904094517 67 127 0.0 0.0 0.00 0.73 0.01 98 1013.1
20260904093538 67 127 0.0 0.0 0.00 0.73 0.01 98 1013.5
20260904092551 67 127 0.0 0.0 0.00 0.73 0.01 98 1013.8
20260904091609 67 127 0.0 0.0 0.00 0.73 0.01 98 1013.7
20260904090622 67 127 0.0 0.0 0.00 0.73 0.01 98 1013.6
20260904085639 67 140 0.0 2.0 0.00 0.73 0.01 98 1013.2
20260904084658 67 121 0.0 1.0 0.00 0.72 0.01 98 1013.1
20260904082550 67 113 0.0 0.0 0.00 0.72 0.00 98 1013.1
20260904081612 67 113 0.0 0.0 0.00 0.72 0.00 98 1013.1
20260904080618 67 259 0.0 0.0 0.00 0.72 0.00 98 1013.1
20260904075634 67 259 0.0 0.0 0.00 0.72 0.00 98 1013.2
20260904074628 67 259 0.0 0.0 0.00 0.72 0.00 98 1013.4
20260904073557 67 259 0.0 0.0 0.00 0.72 0.00 98 1013.4
20260904072550 67 259 0.0 0.0 0.00 0.72 0.00 98 1013.6
20260904071609 67 259 0.0 0.0 0.00 0.72 0.00 98 1013.7
20260904065508 66 259 0.0 0.0 0.00 0.72 0.00 98 1013.6
20260904063348 67 259 0.0 0.0 0.00 0.72 0.00 98 1013.5
20260904062338 67 259 0.0 0.0 0.00 0.72 0.00 98 1013.6
20260904061330 67 259 0.0 0.0 0.00 0.72 0.00 98 1013.6
20260904055221 67 259 0.0 0.0 0.00 0.72 0.00 98 1013.6
20260904054221 68 259 0.0 1.0 0.00 0.72 0.00 98 1013.5
20260904053223 68 259 0.0 0.0 0.00 0.72 0.00 98 1013.6
20260904052204 68 36 0.0 0.0 0.00 0.72 0.00 98 1013.7
20260904051223 67 238 0.0 1.0 0.00 0.72 0.00 98 1013.6
20260904050235 68 238 0.0 1.0 0.00 0.72 0.00 98 1013.5
20260904045254 68 29 0.0 0.0 0.00 0.72 0.00 97 1013.7
20260904044249 68 29 0.0 0.0 0.00 0.72 0.00 97 1013.8
20260904043253 68 29 0.0 0.0 0.00 0.72 0.00 97 1013.8
20260904042314 68 161 0.0 1.0 0.00 0.72 0.00 97 1013.5
20260904041306 69 116 0.0 0.0 0.00 0.72 0.00 96 1013.4
20260904040305 69 200 0.0 3.0 0.00 0.72 0.00 96 1013.2
20260904034136 69 209 1.0 4.0 0.00 0.72 0.72 96 1013.0
20260904033151 69 196 0.0 1.0 0.00 0.72 0.72 96 1013.1